Back to catalog

THORAD AGENA D DEB

AliveSSO
NORAD 19391·DEBRIS·🇺🇸 United States

Launched Apr 8, 1970 from Vandenberg Space Force Base

Loading…

Next Passes (next 24 hours)

TLE

FreshSource: Space-Track

Epoch: Sep 14, 2026, 08:41 UTC

1 19391U 70025PZ  26257.36205176  .00001090  00000-0  68839-3 0  9996
2 19391  98.7110 108.1581 0143986  48.0498 125.8948 14.01104182931573

Track THORAD AGENA D DEB in real time with AllMySat

Download on the App Store